Date String (YYYY-MM-DD hh:mm:ss) UTC,Instrument flags,Ambient pressure (hPa),Sample flow (lpm),Bypass flow (lpm),Sample temperature (°C),Ambient temperature (°C),ASC tube jacket temperature (°C),LED temperature (°C),Box temperature (°C),Sample RH (%),Span deviation,Mass concentration (μg/m³),Mass concentration (μg/m³),Mass concentration (μg/m³)
DateTimeUTC,F1_M11,P_M11,Q1_M11,Q2_M11,T1_M11,T2_M11,T3_M11,T4_M11,T5_M11,U1_M11,ZSPAN_M11,X0_M11,X2_M11,X1_M11
2023-04-09 19:00:00,,0835.4,5.00,0.00,26.4,25.1,00.0,34.6,28.0,12.4,0000.0,0009.39,0004.49,0003.56
2023-04-09 19:01:00,,0835.4,4.99,0.00,26.4,25.1,00.0,34.6,28.0,12.4,0000.0,0009.43,0004.47,0003.55
2023-04-09 19:02:00,,0835.4,5.01,0.00,26.4,25.1,00.0,34.6,28.0,12.4,0000.0,0009.23,0004.50,0003.55
2023-04-09 19:03:00,,0835.4,5.00,0.00,26.4,25.1,00.0,34.6,28.1,12.4,0000.0,0009.44,0004.53,0003.55
2023-04-09 19:04:00,,0835.4,5.00,0.00,26.4,25.2,00.0,34.6,28.1,12.4,0000.0,0009.61,0004.58,0003.58
2023-04-09 19:05:00,,0835.4,5.00,0.00,26.4,25.2,00.0,34.7,28.1,12.4,0000.0,0009.42,0004.57,0003.60
2023-04-09 19:06:00,,0835.3,4.99,0.00,26.4,25.2,00.0,34.7,28.1,12.3,0000.0,0009.33,0004.52,0003.60
2023-04-09 19:07:00,,0835.3,5.00,0.00,26.5,25.2,00.0,34.7,28.1,12.2,0000.0,0009.34,0004.52,0003.60
2023-04-09 19:08:00,,0835.3,5.00,0.00,26.5,25.2,00.0,34.7,28.2,12.2,0000.0,0009.37,0004.54,0003.61
2023-04-09 19:09:00,,0835.3,5.00,0.00,26.5,25.3,00.0,34.7,28.2,12.0,0000.0,0009.20,0004.58,0003.61
2023-04-09 19:10:00,,0835.3,4.98,0.00,26.5,25.3,00.0,34.7,28.2,12.1,0000.0,0009.24,0004.62,0003.63
2023-04-09 19:11:00,,0835.4,5.01,0.00,26.5,25.3,00.0,34.7,28.2,12.1,0000.0,0009.34,0004.63,0003.64
2023-04-09 19:12:00,,0835.4,5.01,0.00,26.5,25.3,00.0,34.7,28.2,12.4,0000.0,0009.22,0004.64,0003.66
2023-04-09 19:13:00,,0835.4,5.01,0.00,26.5,25.3,00.0,34.8,28.2,12.4,0000.0,0009.14,0004.57,0003.64
2023-04-09 19:14:00,,0835.4,5.00,0.00,26.6,25.3,00.0,34.8,28.2,12.1,0000.0,0008.83,0004.50,0003.62
2023-04-09 19:15:00,,0835.4,5.00,0.00,26.6,25.3,00.0,34.8,28.2,12.1,0000.0,0008.97,0004.46,0003.58
2023-04-09 19:16:00,,0835.5,5.01,0.00,26.6,25.3,00.0,34.8,28.2,11.9,0000.0,0008.95,0004.43,0003.54
2023-04-09 19:17:00,,0835.5,5.00,0.00,26.6,25.3,00.0,34.8,28.1,11.9,0000.0,0008.94,0004.42,0003.52
2023-04-09 19:18:00,,0835.5,5.00,0.00,26.6,25.3,00.0,34.8,28.2,11.9,0000.0,0008.75,0004.34,0003.49
2023-04-09 19:19:00,,0835.5,5.00,0.00,26.6,25.3,00.0,34.8,28.2,12.0,0000.0,0008.78,0004.30,0003.46
2023-04-09 19:20:00,,0835.5,5.00,0.00,26.6,25.3,00.0,34.8,28.2,11.8,0000.0,0008.74,0004.22,0003.44
2023-04-09 19:21:00,,0835.5,5.01,0.00,26.6,25.3,00.0,34.8,28.2,11.8,0000.0,0009.20,0004.15,0003.42
2023-04-09 19:22:00,,0835.5,5.00,0.00,26.6,25.3,00.0,34.8,28.2,11.9,0000.0,0009.21,0004.14,0003.41
2023-04-09 19:23:00,,0835.5,4.99,0.00,26.6,25.3,00.0,34.9,28.2,11.9,0000.0,0009.12,0004.10,0003.40
2023-04-09 19:24:00,,0835.5,5.00,0.00,26.6,25.3,00.0,34.9,28.2,12.0,0000.0,0009.04,0004.12,0003.41
2023-04-09 19:25:00,,0835.5,4.99,0.00,26.6,25.3,00.0,34.9,28.2,11.9,0000.0,0009.30,0004.15,0003.43
2023-04-09 19:26:00,,0835.5,5.01,0.00,26.6,25.3,00.0,34.9,28.2,11.9,0000.0,0009.10,0004.15,0003.43
2023-04-09 19:27:00,,0835.5,5.00,0.00,26.7,25.4,00.0,34.9,28.2,12.0,0000.0,0009.37,0004.20,0003.43
2023-04-09 19:28:00,,0835.5,4.99,0.00,26.7,25.4,00.0,34.9,28.2,11.8,0000.0,0009.35,0004.23,0003.44
2023-04-09 19:29:00,,0835.5,5.00,0.00,26.7,25.4,00.0,34.9,28.2,11.8,0000.0,0009.57,0004.28,0003.46
2023-04-09 19:30:00,,0835.5,5.01,0.00,26.7,25.4,00.0,34.9,28.2,11.8,0000.0,0009.54,0004.26,0003.47
2023-04-09 19:31:00,,0835.5,5.00,0.00,26.7,25.4,00.0,34.9,28.2,11.9,0000.0,0009.48,0004.28,0003.47
2023-04-09 19:32:00,,0835.5,5.00,0.00,26.7,25.4,00.0,34.9,28.2,11.9,0000.0,0008.88,0004.30,0003.47
2023-04-09 19:33:00,,0835.5,5.00,0.00,26.7,25.4,00.0,34.9,28.3,12.1,0000.0,0008.78,0004.32,0003.48
2023-04-09 19:34:00,,0835.5,5.00,0.00,26.7,25.4,00.0,35.0,28.3,12.3,0000.0,0008.77,0004.34,0003.47
2023-04-09 19:35:00,,0835.5,5.00,0.00,26.7,25.4,00.0,35.0,28.3,12.1,0000.0,0008.82,0004.35,0003.46
2023-04-09 19:36:00,,0835.5,5.00,0.00,26.7,25.4,00.0,35.0,28.3,11.8,0000.0,0008.89,0004.35,0003.45
2023-04-09 19:37:00,,0835.5,5.00,0.00,26.7,25.4,00.0,35.0,28.3,11.8,0000.0,0008.82,0004.33,0003.45
2023-04-09 19:38:00,,0835.4,4.99,0.00,26.7,25.4,00.0,35.0,28.3,11.8,0000.0,0008.57,0004.28,0003.45
2023-04-09 19:39:00,,0835.4,5.00,0.00,26.8,25.5,00.0,35.0,28.3,11.8,0000.0,0008.69,0004.27,0003.44
2023-04-09 19:40:00,,0835.4,4.99,0.00,26.8,25.5,00.0,35.0,28.4,12.0,0000.0,0008.54,0004.23,0003.43
2023-04-09 19:41:00,,0835.5,5.01,0.00,26.8,25.5,00.0,35.0,28.4,11.8,0000.0,0008.50,0004.26,0003.43
2023-04-09 19:42:00,,0835.4,5.01,0.00,26.8,25.5,00.0,35.0,28.4,11.8,0000.0,0009.00,0004.33,0003.45
2023-04-09 19:43:00,,0835.4,5.00,0.00,26.8,25.5,00.0,35.0,28.4,11.6,0000.0,0009.23,0004.36,0003.44
2023-04-09 19:44:00,,0835.5,5.00,0.00,26.8,25.5,00.0,35.1,28.4,11.9,0000.0,0009.99,0004.34,0003.43
2023-04-09 19:45:00,,0835.4,5.00,0.00,26.8,25.5,00.0,35.1,28.4,12.0,0000.0,0010.78,0004.35,0003.43
2023-04-09 19:46:00,,0835.4,5.01,0.00,26.8,25.5,00.0,35.1,28.4,12.0,0000.0,0010.94,0004.35,0003.43
2023-04-09 19:47:00,,0835.5,5.00,0.00,26.8,25.5,00.0,35.1,28.4,11.7,0000.0,0010.72,0004.34,0003.45
2023-04-09 19:48:00,,0835.5,5.00,0.00,26.8,25.5,00.0,35.1,28.4,11.7,0000.0,0010.62,0004.37,0003.45
2023-04-09 19:49:00,,0835.5,5.00,0.00,26.8,25.5,00.0,35.1,28.4,11.6,0000.0,0010.72,0004.42,0003.47
2023-04-09 19:50:00,,0835.5,5.00,0.00,26.9,25.5,00.0,35.1,28.5,11.7,0000.0,0010.65,0004.43,0003.47
2023-04-09 19:51:00,,0835.5,4.99,0.00,26.9,25.5,00.0,35.1,28.5,11.7,0000.0,0010.64,0004.46,0003.50
2023-04-09 19:52:00,,0835.5,5.00,0.00,26.9,25.6,00.0,35.1,28.4,11.7,0000.0,0010.85,0004.49,0003.51
2023-04-09 19:53:00,,0835.4,4.99,0.00,26.9,25.6,00.0,35.1,28.5,11.6,0000.0,0010.45,0004.47,0003.51
2023-04-09 19:54:00,,0835.4,4.99,0.00,26.9,25.6,00.0,35.2,28.5,11.7,0000.0,0010.13,0004.44,0003.53
2023-04-09 19:55:00,,0835.3,5.01,0.00,26.9,25.6,00.0,35.2,28.5,11.8,0000.0,0010.22,0004.48,0003.56
2023-04-09 19:56:00,,0835.3,5.00,0.00,26.9,25.6,00.0,35.2,28.5,11.8,0000.0,0009.83,0004.48,0003.58
2023-04-09 19:57:00,,0835.3,5.00,0.00,26.9,25.6,00.0,35.2,28.5,11.7,0000.0,0009.99,0004.48,0003.60
2023-04-09 19:58:00,,0835.3,4.99,0.00,27.0,25.7,00.0,35.2,28.6,11.6,0000.0,0010.04,0004.49,0003.59
2023-04-09 19:59:00,,0835.3,5.00,0.00,27.0,25.7,00.0,35.2,28.6,11.7,0000.0,0010.08,0004.49,0003.60
